QPF
0.00 0.00 0.00 0.01 0.01 0.01 0.02 0.02 0.03 0.04 0.05 0.05 0.05 0.05 0.04 0.03 0.03 0.03 0.03 0.03 0.03 0.04 0.05 0.06 0.07 0.06 0.05 0.04 0.05 0.04 0.02 0.01 0.01 0.01 0.01 0.01 0.01 0.01 0.01 0.01 0.01 0.02 0.02
0.00 0.00 0.00 0.01 0.01 0.01 0.02 0.03 0.03 0.04 0.05 0.05 0.05 0.06 0.06 0.06 0.05 0.06 0.06 0.06 0.05 0.05 0.05 0.07 0.08 0.07 0.06 0.05 0.05 0.04 0.02 0.02 0.01 0.01 0.00 0.00 0.01 0.01 0.01 0.01 0.01 0.02 0.02
0.00 0.00 0.00 0.00 0.01 0.01 0.02 0.03 0.04 0.04 0.04 0.06 0.06 0.06 0.07 0.08 0.08 0.08 0.07 0.07 0.07 0.07 0.07 0.07 0.09 0.09 0.08 0.07 0.07 0.06 0.05 0.04 0.02 0.01 0.00 0.01 0.01 0.01 0.01 0.00 0.01 0.02 0.02
0.00 0.00 0.00 0.01 0.01 0.01 0.02 0.02 0.04 0.05 0.04 0.06 0.08 0.08 0.07 0.07 0.08 0.09 0.09 0.09 0.09 0.09 0.09 0.11 0.11 0.12 0.13 0.11 0.09 0.08 0.06 0.04 0.02 0.01 0.01 0.01 0.01 0.01 0.01 0.01 0.02 0.02 0.02
0.00 0.00 0.00 0.00 0.01 0.02 0.02 0.03 0.04 0.05 0.05 0.05 0.07 0.08 0.09 0.07 0.06 0.07 0.08 0.08 0.08 0.08 0.09 0.10 0.12 0.16 0.21 0.21 0.17 0.13 0.07 0.04 0.02 0.01 0.01 0.01 0.02 0.01 0.01 0.01 0.02 0.02 0.01
0.00 0.00 0.00 0.00 0.01 0.01 0.02 0.02 0.03 0.05 0.06 0.07 0.07 0.07 0.09 0.10 0.08 0.07 0.07 0.08 0.08 0.09 0.12 0.12 0.14 0.17 0.21 0.23 0.17 0.14 0.11 0.05 0.03 0.01 0.01 0.01 0.01 0.01 0.01 0.01 0.02 0.01 0.01
0.00 0.00 0.00 0.00 0.01 0.01 0.02 0.03 0.03 0.05 0.06 0.07 0.07 0.07 0.08 0.10 0.11 0.09 0.08 0.07 0.08 0.09 0.11 0.13 0.15 0.16 0.18 0.18 0.14 0.11 0.09 0.05 0.02 0.01 0.01 0.00 0.01 0.01 0.01 0.01 0.02 0.02 0.01
0.00 0.00 0.00 0.00 0.00 0.01 0.01 0.02 0.04 0.05 0.06 0.07 0.07 0.08 0.09 0.08 0.10 0.10 0.09 0.07 0.07 0.08 0.08 0.09 0.11 0.16 0.16 0.12 0.10 0.09 0.06 0.04 0.03 0.02 0.01 0.01 0.01 0.02 0.01 0.01 0.02 0.02 0.01
0.00 0.00 0.00 0.00 0.00 0.00 0.01 0.02 0.02 0.03 0.05 0.07 0.08 0.09 0.09 0.10 0.10 0.10 0.08 0.07 0.07 0.06 0.07 0.07 0.08 0.10 0.10 0.09 0.09 0.09 0.07 0.06 0.05 0.02 0.02 0.01 0.01 0.01 0.01 0.01 0.02 0.02 0.01
0.00 0.01 0.00 0.00 0.00 0.00 0.01 0.02 0.02 0.03 0.04 0.07 0.08 0.09 0.09 0.11 0.12 0.10 0.08 0.08 0.08 0.06 0.06 0.06 0.06 0.07 0.07 0.08 0.09 0.09 0.08 0.07 0.05 0.03 0.02 0.01 0.01 0.01 0.02 0.01 0.02 0.02 0.01
0.00 0.01 0.01 0.01 0.00 0.00 0.01 0.01 0.02 0.04 0.05 0.07 0.09 0.09 0.10 0.12 0.13 0.11 0.09 0.09 0.08 0.07 0.05 0.05 0.06 0.07 0.07 0.07 0.08 0.08 0.08 0.07 0.05 0.04 0.03 0.02 0.01 0.02 0.02 0.02 0.02 0.02 0.02
0.00 0.01 0.01 0.01 0.01 0.01 0.01 0.01 0.02 0.04 0.06 0.08 0.08 0.09 0.11 0.11 0.12 0.11 0.10 0.09 0.08 0.08 0.07 0.06 0.06 0.07 0.07 0.07 0.08 0.08 0.06 0.05 0.05 0.04 0.03 0.03 0.03 0.03 0.03 0.02 0.02 0.03 0.02
0.00 0.01 0.01 0.01 0.01 0.01 0.01 0.01 0.02 0.04 0.06 0.08 0.09 0.09 0.09 0.11 0.11 0.11 0.10 0.09 0.09 0.08 0.08 0.08 0.07 0.05 0.05 0.06 0.08 0.08 0.05 0.04 0.03 0.02 0.02 0.01 0.02 0.02 0.02 0.02 0.03 0.03 0.02
0.00 0.01 0.01 0.01 0.01 0.01 0.01 0.01 0.02 0.03 0.05 0.07 0.11 0.11 0.09 0.09 0.09 0.09 0.10 0.09 0.08 0.07 0.07 0.08 0.06 0.05 0.06 0.07 0.07 0.08 0.06 0.05 0.04 0.03 0.02 0.02 0.02 0.03 0.03 0.02 0.03 0.02 0.02
0.00 0.01 0.01 0.01 0.01 0.01 0.01 0.01 0.01 0.03 0.04 0.06 0.09 0.13 0.11 0.08 0.06 0.08 0.10 0.10 0.10 0.09 0.06 0.06 0.06 0.06 0.06 0.06 0.07 0.07 0.06 0.05 0.04 0.03 0.03 0.02 0.02 0.03 0.03 0.03 0.03 0.03 0.03
0.00 0.01 0.02 0.02 0.02 0.02 0.01 0.01 0.01 0.03 0.05 0.08 0.09 0.11 0.11 0.08 0.06 0.07 0.10 0.11 0.11 0.10 0.09 0.06 0.05 0.05 0.06 0.06 0.06 0.06 0.05 0.05 0.05 0.05 0.04 0.03 0.02 0.03 0.03 0.04 0.04 0.04 0.04
0.00 0.01 0.02 0.03 0.03 0.02 0.01 0.01 0.01 0.03 0.05 0.09 0.11 0.11 0.12 0.08 0.06 0.06 0.09 0.12 0.12 0.11 0.12 0.10 0.08 0.06 0.06 0.06 0.07 0.06 0.05 0.06 0.05 0.05 0.05 0.04 0.03 0.03 0.03 0.04 0.04 0.05 0.05
0.01 0.01 0.02 0.04 0.04 0.02 0.02 0.02 0.02 0.02 0.06 0.11 0.12 0.14 0.13 0.09 0.05 0.05 0.05 0.09 0.12 0.13 0.13 0.13 0.11 0.08 0.07 0.07 0.07 0.08 0.07 0.06 0.05 0.05 0.05 0.05 0.05 0.04 0.04 0.04 0.04 0.05 0.07
0.01 0.01 0.03 0.04 0.05 0.03 0.02 0.03 0.03 0.03 0.05 0.10 0.13 0.15 0.16 0.11 0.07 0.05 0.05 0.08 0.11 0.15 0.15 0.14 0.12 0.11 0.09 0.08 0.08 0.09 0.09 0.07 0.05 0.05 0.05 0.05 0.05 0.05 0.04 0.04 0.03 0.04 0.06
0.02 0.02 0.03 0.05 0.07 0.06 0.04 0.04 0.04 0.04 0.05 0.09 0.11 0.13 0.15 0.15 0.08 0.05 0.04 0.07 0.11 0.15 0.17 0.16 0.16 0.12 0.09 0.09 0.09 0.10 0.10 0.08 0.07 0.06 0.05 0.05 0.04 0.04 0.04 0.03 0.03 0.03 0.04
0.02 0.04 0.04 0.04 0.06 0.06 0.04 0.05 0.05 0.05 0.06 0.08 0.09 0.10 0.12 0.15 0.10 0.05 0.04 0.04 0.08 0.14 0.18 0.18 0.18 0.19 0.15 0.11 0.11 0.12 0.12 0.10 0.08 0.07 0.06 0.05 0.05 0.04 0.04 0.04 0.03 0.03 0.03
0.02 0.04 0.05 0.06 0.09 0.05 0.04 0.06 0.05 0.05 0.06 0.06 0.08 0.09 0.11 0.13 0.11 0.07 0.05 0.04 0.05 0.09 0.15 0.19 0.20 0.19 0.18 0.16 0.13 0.12 0.13 0.13 0.10 0.07 0.05 0.05 0.05 0.05 0.04 0.04 0.03 0.03 0.03
0.02 0.03 0.06 0.08 0.09 0.06 0.05 0.06 0.07 0.05 0.05 0.06 0.07 0.07 0.09 0.11 0.10 0.07 0.06 0.05 0.05 0.07 0.10 0.15 0.19 0.20 0.18 0.16 0.13 0.10 0.10 0.09 0.08 0.07 0.06 0.05 0.05 0.05 0.04 0.04 0.03 0.03 0.03
0.05 0.04 0.05 0.08 0.07 0.07 0.07 0.06 0.08 0.06 0.04 0.05 0.05 0.05 0.06 0.09 0.09 0.07 0.05 0.04 0.05 0.08 0.08 0.09 0.13 0.18 0.19 0.17 0.14 0.10 0.07 0.06 0.06 0.06 0.06 0.06 0.05 0.05 0.05 0.04 0.03 0.03 0.03
0.04 0.04 0.05 0.07 0.08 0.08 0.08 0.06 0.06 0.06 0.03 0.05 0.05 0.04 0.05 0.07 0.07 0.07 0.05 0.04 0.04 0.06 0.07 0.07 0.10 0.14 0.17 0.18 0.15 0.11 0.08 0.07 0.06 0.06 0.06 0.06 0.07 0.06 0.05 0.05 0.04 0.03 0.03
0.04 0.05 0.05 0.05 0.07 0.07 0.06 0.06 0.05 0.05 0.03 0.04 0.06 0.05 0.05 0.06 0.06 0.05 0.04 0.03 0.03 0.04 0.07 0.07 0.08 0.11 0.13 0.14 0.13 0.12 0.10 0.08 0.06 0.05 0.05 0.05 0.06 0.06 0.06 0.06 0.05 0.04 0.04
MSLP
1011.26 1011.22 1010.97 1010.61 1010.20 1009.82 1009.49 1009.22 1009.00 1008.80 1008.60 1008.38 1008.17 1007.96 1007.80 1007.68 1007.63 1007.64 1007.70 1007.80 1007.92 1008.06 1008.21 1008.38 1008.56 1008.77 1008.98 1009.20 1009.41 1009.60 1009.78 1009.93 1010.09 1010.27 1010.48 1010.72 1011.00 1011.30 1011.59 1011.86 1012.08 1012.25 1012.36
1011.37 1011.27 1011.03 1010.72 1010.41 1010.15 1009.93 1009.74 1009.57 1009.37 1009.13 1008.87 1008.59 1008.33 1008.13 1007.99 1007.92 1007.92 1007.97 1008.05 1008.14 1008.23 1008.33 1008.45 1008.59 1008.77 1008.97 1009.19 1009.41 1009.62 1009.81 1009.99 1010.17 1010.36 1010.58 1010.84 1011.13 1011.44 1011.74 1012.00 1012.22 1012.38 1012.48
1011.44 1011.28 1011.04 1010.80 1010.60 1010.45 1010.34 1010.24 1010.11 1009.92 1009.67 1009.37 1009.06 1008.76 1008.53 1008.36 1008.28 1008.25 1008.26 1008.29 1008.32 1008.34 1008.38 1008.43 1008.53 1008.67 1008.86 1009.09 1009.33 1009.57 1009.79 1010.00 1010.21 1010.42 1010.65 1010.91 1011.20 1011.50 1011.79 1012.05 1012.26 1012.41 1012.52
1011.43 1011.23 1011.01 1010.84 1010.73 1010.69 1010.68 1010.66 1010.58 1010.41 1010.16 1009.84 1009.50 1009.19 1008.93 1008.75 1008.64 1008.58 1008.54 1008.51 1008.46 1008.40 1008.35 1008.34 1008.38 1008.50 1008.68 1008.93 1009.20 1009.48 1009.74 1009.99 1010.21 1010.44 1010.67 1010.92 1011.19 1011.47 1011.75 1012.00 1012.21 1012.37 1012.49
1011.35 1011.13 1010.95 1010.84 1010.83 1010.88 1010.95 1010.98 1010.94 1010.79 1010.53 1010.21 1009.87 1009.55 1009.29 1009.10 1008.96 1008.87 1008.78 1008.67 1008.54 1008.40 1008.28 1008.20 1008.20 1008.29 1008.48 1008.73 1009.04 1009.35 1009.66 1009.93 1010.18 1010.41 1010.63 1010.86 1011.11 1011.37 1011.62 1011.87 1012.09 1012.27 1012.43
1011.22 1011.01 1010.87 1010.84 1010.90 1011.02 1011.14 1011.21 1011.18 1011.03 1010.78 1010.46 1010.12 1009.81 1009.56 1009.36 1009.22 1009.09 1008.96 1008.79 1008.59 1008.38 1008.19 1008.06 1008.02 1008.09 1008.27 1008.54 1008.86 1009.21 1009.54 1009.83 1010.09 1010.32 1010.53 1010.74 1010.96 1011.20 1011.44 1011.68 1011.92 1012.14 1012.34
1011.07 1010.91 1010.83 1010.86 1010.98 1011.14 1011.29 1011.36 1011.33 1011.17 1010.91 1010.60 1010.27 1009.97 1009.73 1009.54 1009.39 1009.25 1009.08 1008.87 1008.62 1008.35 1008.11 1007.94 1007.86 1007.91 1008.08 1008.34 1008.67 1009.02 1009.36 1009.67 1009.93 1010.15 1010.35 1010.55 1010.75 1010.98 1011.21 1011.47 1011.73 1011.99 1012.25
1010.97 1010.86 1010.84 1010.93 1011.08 1011.26 1011.40 1011.46 1011.40 1011.23 1010.96 1010.65 1010.33 1010.05 1009.82 1009.64 1009.49 1009.34 1009.14 1008.91 1008.62 1008.33 1008.05 1007.84 1007.74 1007.75 1007.89 1008.13 1008.44 1008.77 1009.10 1009.40 1009.66 1009.88 1010.09 1010.28 1010.49 1010.71 1010.95 1011.22 1011.51 1011.82 1012.13
1010.95 1010.90 1010.94 1011.06 1011.23 1011.40 1011.52 1011.54 1011.45 1011.26 1010.98 1010.66 1010.36 1010.09 1009.87 1009.70 1009.54 1009.38 1009.17 1008.91 1008.61 1008.29 1007.99 1007.76 1007.62 1007.60 1007.69 1007.88 1008.14 1008.43 1008.73 1009.01 1009.27 1009.50 1009.72 1009.93 1010.16 1010.40 1010.66 1010.96 1011.27 1011.62 1011.98
1011.02 1011.03 1011.10 1011.24 1011.40 1011.54 1011.62 1011.61 1011.48 1011.27 1010.98 1010.67 1010.38 1010.12 1009.91 1009.73 1009.56 1009.38 1009.15 1008.88 1008.56 1008.23 1007.92 1007.66 1007.48 1007.41 1007.44 1007.57 1007.76 1007.99 1008.25 1008.51 1008.77 1009.02 1009.27 1009.52 1009.78 1010.06 1010.35 1010.66 1011.00 1011.37 1011.76
1011.17 1011.21 1011.30 1011.42 1011.56 1011.66 1011.69 1011.64 1011.49 1011.26 1010.98 1010.68 1010.40 1010.15 1009.93 1009.74 1009.56 1009.35 1009.10 1008.81 1008.48 1008.14 1007.81 1007.53 1007.31 1007.18 1007.14 1007.18 1007.29 1007.46 1007.67 1007.91 1008.17 1008.46 1008.75 1009.06 1009.37 1009.69 1010.01 1010.35 1010.70 1011.07 1011.46
1011.36 1011.40 1011.47 1011.56 1011.64 1011.69 1011.68 1011.59 1011.43 1011.20 1010.94 1010.66 1010.40 1010.15 1009.93 1009.72 1009.51 1009.27 1009.00 1008.69 1008.34 1007.99 1007.65 1007.35 1007.10 1006.91 1006.79 1006.75 1006.78 1006.88 1007.04 1007.26 1007.54 1007.86 1008.21 1008.58 1008.96 1009.32 1009.67 1010.01 1010.35 1010.71 1011.10
1011.54 1011.54 1011.56 1011.60 1011.62 1011.60 1011.55 1011.43 1011.26 1011.05 1010.81 1010.56 1010.32 1010.08 1009.86 1009.63 1009.39 1009.12 1008.82 1008.49 1008.15 1007.79 1007.44 1007.12 1006.84 1006.60 1006.43 1006.31 1006.26 1006.30 1006.42 1006.63 1006.92 1007.28 1007.69 1008.12 1008.55 1008.95 1009.32 1009.66 1009.99 1010.32 1010.68
1011.64 1011.59 1011.55 1011.50 1011.45 1011.37 1011.26 1011.12 1010.94 1010.74 1010.53 1010.32 1010.10 1009.88 1009.66 1009.42 1009.16 1008.87 1008.56 1008.22 1007.88 1007.53 1007.19 1006.87 1006.57 1006.30 1006.07 1005.90 1005.79 1005.77 1005.86 1006.05 1006.35 1006.75 1007.21 1007.68 1008.15 1008.58 1008.96 1009.30 1009.60 1009.91 1010.24
1011.64 1011.52 1011.40 1011.27 1011.13 1010.98 1010.81 1010.64 1010.46 1010.27 1010.08 1009.89 1009.70 1009.50 1009.29 1009.05 1008.79 1008.51 1008.20 1007.87 1007.55 1007.22 1006.90 1006.59 1006.30 1006.01 1005.76 1005.54 1005.39 1005.33 1005.39 1005.57 1005.87 1006.28 1006.76 1007.27 1007.77 1008.22 1008.60 1008.92 1009.21 1009.49 1009.80
1011.53 1011.34 1011.13 1010.91 1010.69 1010.46 1010.24 1010.02 1009.82 1009.62 1009.44 1009.27 1009.10 1008.92 1008.73 1008.51 1008.27 1008.01 1007.73 1007.44 1007.16 1006.88 1006.60 1006.32 1006.04 1005.76 1005.49 1005.25 1005.07 1004.98 1005.00 1005.16 1005.45 1005.86 1006.34 1006.86 1007.36 1007.82 1008.20 1008.52 1008.80 1009.07 1009.37
1011.31 1011.06 1010.78 1010.48 1010.17 1009.87 1009.58 1009.31 1009.07 1008.85 1008.66 1008.49 1008.33 1008.17 1008.00 1007.82 1007.62 1007.40 1007.18 1006.95 1006.72 1006.49 1006.27 1006.03 1005.78 1005.52 1005.25 1005.01 1004.81 1004.68 1004.68 1004.80 1005.05 1005.43 1005.90 1006.40 1006.90 1007.35 1007.75 1008.08 1008.36 1008.65 1008.97
1011.02 1010.71 1010.36 1010.00 1009.62 1009.25 1008.90 1008.57 1008.27 1008.01 1007.79 1007.60 1007.43 1007.29 1007.14 1007.00 1006.85 1006.70 1006.54 1006.39 1006.23 1006.07 1005.90 1005.72 1005.50 1005.26 1005.01 1004.76 1004.54 1004.39 1004.34 1004.42 1004.62 1004.96 1005.38 1005.86 1006.34 1006.80 1007.21 1007.57 1007.89 1008.21 1008.57
1010.67 1010.31 1009.92 1009.50 1009.07 1008.64 1008.23 1007.84 1007.48 1007.17 1006.89 1006.67 1006.48 1006.33 1006.20 1006.10 1006.00 1005.92 1005.84 1005.76 1005.68 1005.59 1005.48 1005.34 1005.17 1004.95 1004.71 1004.46 1004.22 1004.05 1003.95 1003.97 1004.12 1004.39 1004.77 1005.21 1005.67 1006.14 1006.58 1006.98 1007.37 1007.75 1008.17
1010.28 1009.87 1009.44 1008.98 1008.51 1008.05 1007.59 1007.15 1006.73 1006.35 1006.02 1005.73 1005.51 1005.33 1005.21 1005.13 1005.09 1005.06 1005.06 1005.05 1005.04 1005.02 1004.96 1004.87 1004.73 1004.54 1004.31 1004.06 1003.81 1003.61 1003.47 1003.44 1003.52 1003.73 1004.05 1004.45 1004.91 1005.39 1005.87 1006.34 1006.80 1007.26 1007.74
1009.85 1009.38 1008.90 1008.42 1007.93 1007.45 1006.96 1006.48 1006.01 1005.57 1005.16 1004.82 1004.53 1004.32 1004.18 1004.11 1004.09 1004.11 1004.17 1004.23 1004.28 1004.31 1004.31 1004.26 1004.15 1003.99 1003.78 1003.54 1003.29 1003.06 1002.90 1002.82 1002.84 1003.00 1003.26 1003.63 1004.08 1004.58 1005.11 1005.65 1006.20 1006.74 1007.29
1009.36 1008.83 1008.31 1007.80 1007.30 1006.80 1006.30 1005.80 1005.29 1004.79 1004.31 1003.89 1003.53 1003.26 1003.08 1002.99 1002.98 1003.03 1003.13 1003.25 1003.36 1003.45 1003.50 1003.50 1003.43 1003.31 1003.12 1002.90 1002.66 1002.43 1002.25 1002.13 1002.12 1002.22 1002.45 1002.80 1003.25 1003.77 1004.35 1004.96 1005.59 1006.21 1006.82
1008.81 1008.20 1007.62 1007.08 1006.57 1006.08 1005.57 1005.05 1004.51 1003.95 1003.41 1002.89 1002.45 1002.10 1001.86 1001.73 1001.71 1001.78 1001.91 1002.08 1002.25 1002.41 1002.52 1002.58 1002.57 1002.50 1002.36 1002.17 1001.96 1001.74 1001.56 1001.43 1001.39 1001.47 1001.68 1002.01 1002.46 1003.01 1003.64 1004.31 1005.00 1005.68 1006.34
1008.20 1007.49 1006.85 1006.27 1005.74 1005.24 1004.73 1004.20 1003.62 1003.00 1002.38 1001.77 1001.23 1000.79 1000.47 1000.29 1000.25 1000.33 1000.50 1000.72 1000.97 1001.20 1001.40 1001.53 1001.60 1001.60 1001.53 1001.40 1001.23 1001.04 1000.88 1000.76 1000.72 1000.79 1000.98 1001.31 1001.77 1002.34 1003.00 1003.71 1004.45 1005.18 1005.87
1007.55 1006.74 1006.01 1005.38 1004.82 1004.29 1003.76 1003.19 1002.57 1001.89 1001.17 1000.47 999.83 999.29 998.89 998.67 998.60 998.70 998.91 999.21 999.54 999.88 1000.18 1000.42 1000.59 1000.67 1000.68 1000.61 1000.50 1000.36 1000.23 1000.14 1000.11 1000.19 1000.38 1000.72 1001.18 1001.77 1002.45 1003.19 1003.96 1004.72 1005.43
1006.89 1005.97 1005.15 1004.45 1003.83 1003.25 1002.67 1002.05 1001.36 1000.60 999.79 998.98 998.24 997.61 997.15 996.88 996.82 996.94 997.23 997.62 998.06 998.52 998.94 999.30 999.58 999.76 999.85 999.86 999.81 999.72 999.63 999.57 999.56 999.66 999.87 1000.21 1000.69 1001.29 1001.99 1002.75 1003.54 1004.31 1005.04
Thickness
5743 5747 5747 5748 5750 5752 5754 5756 5757 5758 5759 5760 5761 5761 5761 5761 5761 5761 5761 5760 5760 5759 5759 5758 5757 5756 5754 5753 5751 5749 5748 5747 5746 5744 5743 5742 5741 5739 5738 5737 5735 5734 5733
5741 5743 5743 5744 5745 5747 5749 5750 5752 5753 5754 5755 5756 5757 5757 5757 5757 5757 5757 5757 5756 5756 5755 5755 5754 5752 5751 5749 5748 5746 5745 5743 5742 5741 5739 5738 5737 5736 5735 5734 5732 5731 5729
5738 5739 5738 5738 5740 5742 5744 5745 5747 5748 5749 5750 5751 5752 5753 5753 5753 5753 5753 5753 5753 5753 5752 5751 5750 5749 5748 5746 5744 5743 5741 5740 5739 5737 5736 5735 5734 5733 5732 5730 5728 5727 5726
5734 5734 5732 5733 5734 5736 5738 5740 5741 5743 5744 5745 5746 5747 5748 5748 5749 5749 5749 5749 5749 5749 5748 5748 5747 5746 5744 5743 5741 5739 5738 5737 5736 5735 5734 5732 5732 5731 5729 5727 5725 5723 5722
5729 5728 5727 5727 5728 5730 5732 5734 5735 5737 5738 5740 5741 5742 5743 5743 5744 5744 5745 5745 5745 5744 5744 5744 5743 5741 5740 5738 5737 5736 5735 5734 5733 5732 5732 5731 5730 5728 5726 5723 5721 5720 5718
5723 5722 5721 5722 5723 5724 5726 5728 5729 5731 5732 5734 5735 5736 5737 5738 5739 5739 5739 5740 5740 5740 5739 5739 5738 5737 5736 5735 5734 5733 5732 5731 5730 5729 5728 5728 5726 5725 5722 5720 5718 5716 5714
5716 5716 5716 5716 5717 5718 5720 5721 5723 5724 5726 5728 5729 5731 5732 5733 5733 5734 5734 5734 5735 5735 5735 5735 5734 5733 5731 5731 5730 5729 5729 5727 5727 5726 5726 5725 5723 5722 5719 5716 5714 5712 5710
5709 5710 5710 5710 5711 5712 5713 5715 5716 5718 5720 5721 5723 5725 5726 5727 5728 5728 5729 5729 5730 5730 5730 5730 5730 5729 5728 5727 5725 5725 5724 5724 5723 5723 5722 5721 5720 5718 5716 5713 5711 5708 5706
5702 5702 5703 5703 5704 5705 5706 5707 5709 5711 5713 5715 5716 5718 5720 5721 5722 5723 5723 5724 5724 5724 5725 5725 5725 5724 5724 5723 5722 5721 5720 5720 5720 5719 5719 5718 5716 5715 5712 5710 5707 5705 5703
5693 5693 5694 5695 5696 5696 5698 5699 5701 5703 5705 5707 5709 5711 5713 5714 5715 5716 5717 5718 5718 5719 5719 5720 5720 5719 5719 5718 5718 5717 5717 5716 5716 5716 5715 5714 5713 5711 5709 5706 5704 5702 5699
5683 5684 5685 5686 5686 5687 5689 5691 5692 5694 5697 5699 5701 5703 5705 5706 5708 5709 5710 5711 5712 5712 5713 5714 5714 5714 5714 5714 5714 5713 5712 5712 5712 5712 5712 5711 5709 5707 5705 5703 5700 5698 5695
5672 5674 5675 5675 5676 5677 5679 5681 5683 5685 5687 5689 5691 5693 5695 5697 5699 5701 5702 5703 5704 5705 5706 5707 5707 5708 5708 5708 5709 5708 5708 5708 5708 5708 5708 5707 5706 5704 5702 5700 5697 5694 5692
5662 5663 5664 5665 5666 5667 5668 5670 5672 5674 5676 5679 5681 5683 5685 5687 5689 5691 5693 5694 5696 5697 5698 5699 5700 5701 5702 5703 5703 5703 5703 5704 5704 5704 5704 5703 5702 5701 5699 5696 5694 5691 5689
5651 5652 5653 5654 5655 5656 5657 5658 5661 5663 5665 5667 5669 5672 5674 5676 5678 5680 5682 5685 5687 5688 5690 5691 5692 5694 5695 5696 5697 5698 5698 5699 5700 5700 5699 5699 5698 5697 5695 5693 5690 5688 5685
5640 5641 5641 5642 5643 5644 5645 5646 5648 5650 5653 5655 5658 5660 5662 5664 5666 5669 5671 5674 5677 5679 5680 5682 5684 5686 5687 5688 5689 5691 5692 5693 5694 5694 5694 5693 5693 5692 5691 5689 5687 5684 5682
5630 5629 5629 5630 5631 5632 5633 5633 5635 5637 5640 5642 5644 5647 5650 5652 5654 5656 5659 5661 5665 5667 5670 5672 5675 5677 5679 5680 5682 5684 5686 5687 5688 5688 5688 5687 5687 5687 5686 5684 5683 5681 5678
5619 5618 5618 5618 5618 5619 5620 5621 5622 5624 5626 5629 5631 5634 5637 5639 5641 5643 5645 5648 5652 5655 5658 5661 5663 5666 5669 5671 5673 5676 5678 5680 5681 5682 5681 5681 5680 5681 5680 5680 5678 5676 5674
5609 5607 5607 5606 5605 5606 5607 5608 5610 5612 5614 5616 5618 5620 5623 5626 5628 5630 5631 5634 5638 5641 5644 5647 5651 5654 5657 5660 5662 5665 5668 5670 5673 5674 5675 5674 5674 5674 5674 5674 5673 5672 5670
5599 5597 5595 5594 5593 5594 5595 5596 5597 5599 5601 5603 5605 5607 5610 5612 5614 5615 5618 5620 5623 5626 5630 5634 5637 5640 5644 5647 5651 5653 5656 5659 5663 5665 5666 5667 5667 5667 5667 5667 5667 5666 5665
5589 5587 5585 5584 5583 5582 5583 5584 5585 5586 5588 5591 5593 5595 5597 5598 5600 5601 5604 5607 5608 5611 5615 5619 5623 5626 5631 5634 5638 5640 5644 5647 5651 5654 5657 5658 5659 5660 5660 5660 5660 5660 5659
5581 5578 5576 5575 5574 5572 5571 5571 5573 5575 5577 5579 5581 5583 5584 5585 5586 5588 5591 5593 5595 5597 5601 5605 5608 5611 5615 5619 5621 5623 5629 5634 5638 5642 5646 5648 5650 5652 5652 5653 5654 5654 5653
5573 5570 5568 5567 5565 5564 5562 5563 5564 5565 5567 5569 5570 5571 5572 5573 5575 5576 5578 5580 5581 5583 5586 5589 5592 5595 5600 5604 5605 5606 5610 5616 5622 5630 5634 5637 5641 5643 5644 5646 5647 5647 5647
5566 5563 5561 5559 5558 5556 5555 5554 5555 5555 5556 5557 5558 5559 5561 5562 5563 5563 5565 5567 5568 5569 5572 5574 5577 5580 5584 5589 5592 5594 5596 5602 5606 5614 5620 5625 5629 5632 5635 5638 5640 5640 5639
5560 5557 5555 5553 5551 5549 5547 5546 5544 5544 5545 5546 5547 5548 5550 5551 5552 5552 5553 5555 5556 5558 5560 5561 5564 5567 5570 5575 5578 5583 5588 5593 5593 5598 5605 5611 5617 5621 5624 5628 5631 5632 5632
5555 5551 5548 5546 5544 5542 5540 5538 5536 5536 5535 5535 5536 5537 5539 5540 5541 5542 5543 5544 5545 5547 5548 5550 5552 5555 5558 5562 5566 5570 5574 5579 5584 5585 5590 5597 5603 5609 5613 5617 5621 5623 5624
5549 5545 5542 5540 5537 5535 5533 5530 5528 5526 5525 5525 5525 5526 5526 5528 5530 5532 5532 5534 5535 5536 5537 5539 5541 5544 5547 5550 5554 5558 5563 5568 5573 5575 5579 5584 5589 5597 5602 5607 5611 5614 5616